Stations météo

réclame
Mon MeteoGroup
Aurillac, France (7549): Température de l'air & dewpoint: 11.01.2020 23:00:00 - 17.01.2020 23:00:00 (CET)Aurillac, France (7549): Température de l'air 5cm: 11.01.2020 23:00:00 - 17.01.2020 23:00:00 (CET)Aurillac, France (7549): Température de l'air -20cm & Température de l'air -100cm: 11.01.2020 23:00:00 - 17.01.2020 23:00:00 (CET)Aurillac, France (7549): Vitesse du vent & gusts: 11.01.2020 23:00:00 - 17.01.2020 23:00:00 (CET)Aurillac, France (7549): Direction du vent: 11.01.2020 23:00:00 - 17.01.2020 23:00:00 (CET)Aurillac, France (7549): reduced air pressure: 11.01.2020 23:00:00 - 17.01.2020 23:00:00 (CET)Aurillac, France (7549): visibility: 11.01.2020 23:00:00 - 17.01.2020 23:00:00 (CET)Aurillac, France (7549): Ensoleillement: 11.01.2020 23:00:00 - 17.01.2020 23:00:00 (CET)Aurillac, France (7549): Quantités de précipitations: 11.01.2020 23:00:00 - 17.01.2020 23:00:00 (CET)
Date & Time tt [°C] td [°C] tt 5cm [°C] tt -20cm [°C] tt -100cm [°C] ff [km/h] ff [knt] fx [km/h] fx [knt] dd ppp [hPa] vv [km] sd [min] rr [mm]
17.01.2020 23:00:00 2,9 2,5 2,2 5,6 6,5 7 4 14 8 W 1032,0 57 0 0,0
17.01.2020 22:00:00 2,8 2,1 2,1 5,6 6,5 5 3 22 12 NW 1031,5 20 0 0,0
17.01.2020 21:00:00 2,9 1,9 2,3 5,6 6,5 12 7 47 25 NW 1030,9 7 0 0,4
17.01.2020 20:00:00 4,5 3,3 3,7 5,6 6,5 10 5 26 14 WNW 1029,6 17 0 0,0
17.01.2020 19:00:00 4,4 3,4 3,5 5,6 6,5 12 6 24 13 WNW 1028,8 20 0 0,0
17.01.2020 18:00:00 4,6 3,6 4,1 5,5 6,5 15 8 29 16 W 1027,6 59 0 0,0
17.01.2020 17:00:00 4,9 3,6 4,4 5,5 6,5 10 5 33 18 WNW 1026,7 59 11 0,2
17.01.2020 16:00:00 5,0 4,3 4,8 5,5 6,6 12 7 32 17 W 1026,2 3,5 0 0,2
17.01.2020 15:00:00 5,3 4,1 4,7 5,5 6,6 13 7 38 20 W 1025,8 60 0 0,4
17.01.2020 14:00:00 5,2 4,5 4,6 5,4 6,6 12 7 32 17 W 1025,4 18 0 1,6
17.01.2020 13:00:00 5,5 4,3 5,0 5,4 6,6 18 10 39 21 W 1025,2 17 0 2,0
17.01.2020 12:00:00 6,7 5,3 6,1 5,4 6,6 6 4 11 6 SW 1024,6 18 0 0,0
17.01.2020 11:00:00 6,4 5,7 5,8 5,4 6,6 7 4 10 5 E 1024,5 38 0 0,2
17.01.2020 10:00:00 6,4 5,2 5,7 5,4 6,6 5 3 41 22 W 1024,8 38 0 0,2
17.01.2020 09:00:00 7,8 6,3 6,5 5,4 6,6 13 7 34 18 WSW 1024,0 38 0 0,0
17.01.2020 08:00:00 7,3 6,4 6,4 5,4 6,6 9 5 34 18 ESE 1023,5 20 0 0,8
17.01.2020 07:00:00 7,5 6,3 6,3 5,4 6,6 19 10 36 20 SE 1023,5 13 0 0,4
17.01.2020 06:00:00 7,4 5,9 5,9 5,5 6,5 19 10 35 19 SE 1023,3 16 0 0,6
17.01.2020 05:00:00 6,9 4,6 5,0 5,5 6,5 16 9 25 13 ESE 1023,2 32 0 0,0
17.01.2020 04:00:00 6,6 3,6 4,9 5,5 6,5 2 1 27 15 ESE 1023,9 51 0 0,0
17.01.2020 03:00:00 6,4 3,5 4,9 5,6 6,5 21 12 35 19 E 1023,6 47 0 0,0
17.01.2020 02:00:00 7,0 3,6 5,0 5,6 6,5 18 10 35 19 E 1023,6 52 0 0,0
17.01.2020 01:00:00 6,8 3,4 4,3 5,6 6,5 18 10 31 17 E 1023,9 58 0 0,0
17.01.2020 00:00:00 6,4 3,2 3,6 5,6 6,5 15 8 29 16 ESE 1024,0 56 0 0,0
16.01.2020 23:00:00 6,6 2,9 4,4 5,7 6,5 13 7 39 21 ESE 1024,3 57 0 0,0
16.01.2020 22:00:00 6,4 3,2 4,4 5,6 6,5 16 8 36 19 E 1024,2 48 0 0,0
16.01.2020 21:00:00 6,9 3,5 5,1 5,7 6,5 17 9 31 17 E 1024,4 48 0 0,0
16.01.2020 20:00:00 7,4 3,3 5,5 5,6 6,5 20 11 47 26 E 1024,8 57 0 0,0
16.01.2020 19:00:00 7,3 4,3 5,6 5,6 6,5 17 9 35 19 ESE 1025,4 55 0 0,0
16.01.2020 18:00:00 8,6 5,0 6,6 5,5 6,5 14 7 32 17 SSE 1025,3 60 8 0,0
16.01.2020 17:00:00 9,9 4,9 8,7 5,4 6,5 13 7 39 21 SSE 1024,5 59 60 0,0
16.01.2020 16:00:00 10,6 4,9 9,8 5,3 6,5 21 12 45 24 SSE 1024,4 59 60 0,0
16.01.2020 15:00:00 11,0 5,5 11,8 5,2 6,5 24 13 41 22 SSE 1024,1 48 56 0,0
16.01.2020 14:00:00 11,5 4,9 13,5 5,2 6,5 17 9 37 20 SSE 1024,9 60 54 0,0
16.01.2020 13:00:00 11,3 5,2 12,3 5,2 6,5 11 6 43 23 SSE 1025,1 58 60 0,0
16.01.2020 12:00:00 10,4 4,3 10,6 5,2 6,5 19 11 36 19 ESE 1026,0 60 60 0,0
16.01.2020 11:00:00 8,5 4,5 8,5 5,3 6,5 16 9 28 15 E 1027,0 60 60 0,0
16.01.2020 10:00:00 6,5 3,3 4,6 5,3 6,5 13 7 24 13 E 1027,3 60 60 0,0
16.01.2020 09:00:00 4,7 2,2 2,3 5,4 6,5 16 9 25 13 E 1027,5 49 11 0,0
16.01.2020 08:00:00 3,8 2,0 1,6 5,4 6,5 18 10 24 13 E 1027,8 51 0 0,0
16.01.2020 07:00:00 3,7 2,2 1,6 5,4 6,5 16 9 21 11 E 1027,7 50 0 0,0
16.01.2020 06:00:00 4,8 2,7 2,4 5,4 6,5 13 7 17 9 E 1027,3 59 0 0,0
16.01.2020 05:00:00 5,6 2,9 3,1 5,4 6,5 13 7 23 12 E 1027,2 60 0 0,0
16.01.2020 04:00:00 6,2 3,5 4,1 5,4 6,5 15 8 23 12 E 1027,3 58 0 0,0
16.01.2020 03:00:00 7,3 4,3 6,2 5,4 6,5 15 8 20 11 E 1027,4 59 0 0,0
16.01.2020 02:00:00 7,5 4,6 6,6 5,3 6,5 12 6 18 10 E 1027,2 58 0 0,0
16.01.2020 01:00:00 7,7 4,6 6,8 5,3 6,5 10 5 16 8 E 1027,5 59 0 0,0
16.01.2020 00:00:00 7,8 4,6 6,8 5,3 6,5 11 6 21 12 E 1027,8 60 0 0,0
15.01.2020 23:00:00 7,9 4,5 7,0 5,2 6,5 10 6 25 14 ESE 1027,5 60 0 0,0
15.01.2020 22:00:00 8,1 4,3 7,2 5,2 6,5 10 6 27 15 ESE 1027,1 60 0 0,0
15.01.2020 21:00:00 8,2 4,4 7,3 5,1 6,5 11 6 26 14 ESE 1026,5 60 0 0,0
15.01.2020 20:00:00 8,5 4,7 7,4 5,1 6,5 7 4 22 12 ESE 1026,2 60 0 0,0
15.01.2020 19:00:00 8,8 4,4 7,7 5,0 6,5 8 5 27 14 E 1025,3 60 0 0,0
15.01.2020 18:00:00 9,1 4,5 8,1 4,9 6,5 16 9 31 17 SE 1024,1 60 0 0,0
15.01.2020 17:00:00 9,6 4,6 9,0 4,8 6,5 19 10 39 21 SSE 1023,1 60 0 0,0
15.01.2020 16:00:00 10,0 4,8 9,6 4,7 6,5 19 10 46 25 SSE 1022,3 60 2 0,0
15.01.2020 15:00:00 10,3 4,9 10,5 4,6 6,5 19 10 49 26 SSE 1021,5 60 0 0,0
15.01.2020 14:00:00 10,5 5,3 10,8 4,6 6,5 28 15 61 33 SE 1021,2 38 48 0,0
15.01.2020 13:00:00 10,5 5,3 11,4 4,6 6,5 29 16 63 34 SSE 1021,4 42 60 0,0
15.01.2020 12:00:00 9,9 5,3 9,6 4,6 6,5 39 21 68 37 SSE 1020,6 50 55 0,0
15.01.2020 11:00:00 8,9 4,7 7,4 4,6 6,5 35 19 59 32 SE 1021,4 60 4 0,0
15.01.2020 10:00:00 8,0 3,8 6,9 4,5 6,5 34 18 59 32 SSE 1020,9 57 0 0,0
15.01.2020 09:00:00 7,8 3,3 6,5 4,5 6,5 36 19 64 34 SSE 1020,2 59 0 0,0
15.01.2020 08:00:00 7,6 2,5 6,3 4,5 6,5 34 18 62 33 SSE 1019,6 60 0 0,0
15.01.2020 07:00:00 7,7 3,0 6,0 4,5 6,5 18 10 39 21 S 1020,1 59 0 0,0
15.01.2020 06:00:00 7,8 3,3 6,3 4,5 6,5 25 14 59 32 SSE 1019,4 60 0 0,0
15.01.2020 05:00:00 7,8 2,9 6,0 4,6 6,5 31 17 60 32 SE 1018,9 60 0 0,0
15.01.2020 04:00:00 7,6 2,7 5,7 4,6 6,5 23 13 62 34 ESE 1018,6 60 0 0,0
15.01.2020 03:00:00 7,2 2,9 5,0 4,6 6,5 25 14 50 27 ESE 1018,4 60 0 0,0
15.01.2020 02:00:00 7,3 3,0 5,3 4,5 6,5 24 13 43 23 ESE 1018,4 60 0 0,0
15.01.2020 01:00:00 7,0 2,9 5,1 4,5 6,5 25 14 43 23 ESE 1018,7 60 0 0,0
15.01.2020 00:00:00 6,8 3,0 4,9 4,5 6,6 19 11 41 22 E 1019,1 60 0 0,0
14.01.2020 23:00:00 6,9 2,6 5,0 4,5 6,5 23 12 41 22 ESE 1018,9 60 0 0,0
14.01.2020 22:00:00 6,6 2,9 4,7 4,5 6,5 22 12 36 20 E 1019,0 59 0 0,0
14.01.2020 21:00:00 6,7 3,1 5,1 4,4 6,6 19 11 41 22 ESE 1019,2 59 0 0,0
14.01.2020 20:00:00 7,1 3,2 5,0 4,4 6,6 27 15 43 23 ESE 1019,1 58 0 0,0
14.01.2020 19:00:00 7,2 3,2 5,3 4,2 6,6 14 7 27 15 ESE 1019,5 60 0 0,0
14.01.2020 18:00:00 7,8 3,5 5,6 4,1 6,6 18 10 37 20 ESE 1019,0 60 5 0,0
14.01.2020 17:00:00 9,2 4,0 8,2 4,0 6,6 18 10 40 22 SE 1018,3 46 60 0,0
14.01.2020 16:00:00 10,3 4,9 9,2 3,9 6,6 20 11 44 24 SE 1017,5 58 49 0,0
14.01.2020 15:00:00 11,2 5,1 11,5 3,8 6,6 26 14 48 26 SE 1017,2 35 60 0,0
14.01.2020 14:00:00 10,7 5,0 10,8 3,8 6,6 29 15 51 28 SE 1017,2 37 41 0,0
14.01.2020 13:00:00 10,7 4,8 10,9 3,7 6,6 28 15 52 28 SE 1017,8 42 60 0,0
14.01.2020 12:00:00 9,7 3,6 8,9 3,7 6,6 26 14 42 23 ESE 1018,8 54 60 0,0
14.01.2020 11:00:00 8,2 2,6 6,2 3,7 6,6 21 11 36 19 ESE 1019,4 54 60 0,0
14.01.2020 10:00:00 6,2 0,7 3,3 3,8 6,7 19 10 35 19 E 1019,8 55 57 0,0
14.01.2020 09:00:00 4,3 -1,7 2,4 3,8 6,7 21 11 37 20 E 1019,8 60 6 0,0
14.01.2020 08:00:00 3,9 -1,1 2,0 3,8 6,7 18 10 29 15 E 1019,8 59 0 0,0
14.01.2020 07:00:00 3,9 -0,5 1,4 3,9 6,7 21 11 33 18 E 1019,4 57 0 0,0
14.01.2020 06:00:00 3,4 -1,2 0,4 3,9 6,7 14 8 22 12 E 1019,4 60 0 0,0
14.01.2020 05:00:00 1,6 -2,2 -0,2 3,9 6,7 14 8 20 11 E 1019,5 60 0 0,0
14.01.2020 04:00:00 2,1 -1,7 0,5 3,9 6,7 14 8 31 17 E 1019,9 60 0 0,0
14.01.2020 03:00:00 3,6 -0,6 1,3 4,0 6,7 18 10 32 17 E 1019,3 60 0 0,0
14.01.2020 02:00:00 3,8 -0,4 0,8 4,0 6,7 16 9 30 16 E 1019,7 60 0 0,0
14.01.2020 01:00:00 3,0 -1,0 0,9 4,0 6,7 14 8 26 14 E 1020,7 59 0 0,0
14.01.2020 00:00:00 4,2 -0,2 1,2 4,0 6,7 16 9 29 16 E 1020,6 60 0 0,0
13.01.2020 23:00:00 3,7 -0,5 1,3 4,1 6,7 13 7 22 12 E 1020,5 60 0 0,0
13.01.2020 22:00:00 3,8 -0,4 1,1 4,1 6,7 11 6 24 13 E 1019,9 60 0 0,0
13.01.2020 21:00:00 4,2 -0,6 2,0 4,1 6,7 18 10 31 17 E 1019,6 60 0 0,0
13.01.2020 20:00:00 3,8 -1,2 1,1 4,0 6,7 18 10 24 13 E 1020,2 60 0 0,0
13.01.2020 19:00:00 4,4 -0,8 1,4 4,0 6,7 13 7 19 10 E 1020,3 60 0 0,0
13.01.2020 18:00:00 5,2 -1,1 1,2 3,9 6,8 11 6 20 11 E 1020,6 60 6 0,0
13.01.2020 17:00:00 6,9 -0,8 4,3 3,9 6,8 11 6 21 11 SE 1020,4 60 60 0,0
13.01.2020 16:00:00 9,5 -0,7 7,8 3,8 6,8 9 5 29 16 SSE 1019,9 59 60 0,0
13.01.2020 15:00:00 9,6 -2,4 9,4 3,7 6,8 16 9 33 18 SSE 1019,8 60 53 0,0
13.01.2020 14:00:00 9,8 -1,3 10,5 3,8 6,8 11 6 27 14 SE 1020,7 60 48 0,0
13.01.2020 13:00:00 9,2 1,1 9,6 3,8 6,8 12 7 26 14 ESE 1021,5 60 57 0,0
13.01.2020 12:00:00 7,1 3,9 4,8 3,8 6,8 7 4 16 9 E 1023,2 55 54 0,0
13.01.2020 11:00:00 3,3 2,4 0,0 3,8 6,8 10 5 15 8 E 1024,7 44 49 0,0
13.01.2020 10:00:00 -0,1 -0,2 -2,3 3,9 6,8 9 5 13 7 E 1025,8 20 35 0,0
13.01.2020 09:00:00 -2,2 -2,3 -5,6 3,9 6,8 8 4 10 5 ESE 1026,9 20 9 0,0
13.01.2020 08:00:00 -2,9 -3,3 -5,3 4,0 6,8 0 0 10 5 N 1027,4 8 0 0,0
13.01.2020 07:00:00 -3,2 -3,5 -5,3 4,0 6,9 6 3 10 6 E 1027,7 11 0 0,0
13.01.2020 06:00:00 -3,2 -3,5 -5,8 4,1 6,9 6 4 10 5 E 1028,4 13 0 0,0
13.01.2020 05:00:00 -3,7 -4,1 -5,9 4,0 6,8 6 3 10 5 SE 1029,2 7 0 0,0
13.01.2020 04:00:00 -3,4 -3,5 -5,9 4,1 6,9 4 2 7 4 E 1029,7 2,1 0 0,0
13.01.2020 03:00:00 -3,3 -3,4 -4,6 4,1 6,9 3 2 7 4 E 1030,3 0,1 0 0,0
13.01.2020 02:00:00 -2,4 -2,4 -2,5 4,1 6,9 5 3 8 5 SE 1030,5 0,1 0 0,0
13.01.2020 01:00:00 -2,1 -2,1 -2,1 4,2 6,9 7 4 11 6 E 1031,2 0,1 0 0,0
13.01.2020 00:00:00 -1,2 -1,2 -1,2 4,2 6,9 4 2 8 5 ESE 1031,3 0,1 0 0,0
12.01.2020 23:00:00 -0,4 -0,4 -1,8 4,3 6,9 4 2 7 4 E 1031,4 0,1 0 0,0
12.01.2020 22:00:00 -0,7 -0,7 -4,6 4,3 6,9 6 3 9 5 E 1031,7 3,3 0 0,0
12.01.2020 21:00:00 -0,9 -1,5 -4,2 4,3 6,9 3 2 10 5 WSW 1032,0 0,4 0 0,0
12.01.2020 20:00:00 0,7 0,1 -1,1 4,3 6,9 5 3 14 8 W 1031,8 6 0 0,0
12.01.2020 19:00:00 1,7 0,4 -1,5 4,3 6,9 6 3 10 6 WNW 1031,4 11 0 0,0
12.01.2020 18:00:00 3,0 0,6 -0,2 4,3 7,0 4 2 16 8 W 1030,8 20 5 0,0
12.01.2020 17:00:00 5,4 2,2 4,1 4,3 7,0 6 4 19 10 W 1030,0 19 55 0,0
12.01.2020 16:00:00 6,2 2,5 5,1 4,3 7,0 10 5 17 9 W 1029,7 35 60 0,0
12.01.2020 15:00:00 5,8 0,9 8,0 4,3 7,0 8 5 14 8 WNW 1029,7 20 60 0,0
12.01.2020 14:00:00 5,3 1,9 7,1 4,3 7,0 6 4 12 7 NW 1030,4 20 46 0,0
12.01.2020 13:00:00 4,4 1,6 5,6 4,4 7,0 5 3 12 6 W 1031,5 20 60 0,0
12.01.2020 12:00:00 2,3 0,4 4,0 4,5 7,0 5 3 11 6 W 1033,1 20 60 0,0
12.01.2020 11:00:00 0,7 -0,5 -0,1 4,5 7,0 0 0 8 4 N 1033,6 17 60 0,0
12.01.2020 10:00:00 -2,1 -2,5 -5,2 4,6 7,0 5 3 8 4 ESE 1033,9 15 60 0,0
12.01.2020 09:00:00 -5,1 -5,8 -9,0 4,7 7,0 4 2 7 4 ESE 1034,7 8 8 0,0
12.01.2020 08:00:00 -5,2 -5,5 -9,0 4,7 7,0 7 4 9 5 ESE 1034,3 11 0 0,0
12.01.2020 07:00:00 -5,3 -6,1 -8,6 4,8 7,0 3 1 9 5 E 1034,2 7 0 0,0
12.01.2020 06:00:00 -5,1 -5,6 -8,3 4,9 7,0 6 4 9 5 E 1033,5 7 0 0,0
12.01.2020 05:00:00 -5,1 -5,8 -8,6 4,9 7,0 6 3 9 5 ESE 1033,3 5 0 0,0
12.01.2020 04:00:00 -3,8 -4,1 -8,3 5,0 7,0 5 3 6 3 ESE 1033,1 7 0 0,0
12.01.2020 03:00:00 -3,5 -3,8 -8,1 5,1 7,0 4 2 7 4 ESE 1033,0 4,3 0 0,0
12.01.2020 02:00:00 -2,7 -2,8 -7,5 5,1 7,0 4 2 10 5 E 1032,7 1,0 0 0,0
12.01.2020 01:00:00 -2,4 -2,4 -6,4 5,2 7,0 9 5 11 6 E 1032,8 1,3 0 0,0
12.01.2020 00:00:00 -3,0 -3,3 -6,7 5,3 7,0 6 4 9 5 ESE 1033,6 5 0 0,0
11.01.2020 23:00:00 -2,7 -3,0 -6,3 5,4 7,0 4 2 9 5 SE 1033,7 0,3 0 0,0

tt = Température de l'air
td = dewpoint
tt 5cm = Température de l'air 5cm
tt -20cm = Température de l'air -20cm
tt -100cm = Température de l'air -100cm
ff = Vitesse du vent
fx = gusts
dd = Direction du vent
ppp = reduced air pressure
vv = visibility
sd = Ensoleillement
rr = Quantités de précipitations

stations d'obs. à proximité